Cloud_Cover
100 86 28 46 16 5 85 94 11 48 19 7 5 5 5 2 4 52 32 23 10 20 9 5 5 5 4 4 8 40 74 64 84 100 100 100 100 100 100 100 39 5 0 0 0 0 0
100 92 95 92 41 100 100 73 88 8 100 100 97 5 5 5 5 5 12 5 28 83 100 73 5 5 5 5 5 4 5 6 6 5 5 5 5 14 48 99 49 5 1 0 0 0 0
100 100 49 71 100 17 12 13 38 34 60 27 5 6 5 5 5 5 9 5 5 33 6 5 99 93 99 36 26 5 16 5 87 66 22 5 5 1 0 1 5 3 0 0 0 0 0
100 100 100 92 72 100 100 100 100 100 85 100 100 85 9 5 5 43 67 100 99 12 41 43 62 38 100 100 99 100 100 100 95 62 26 5 5 4 0 0 5 1 1 0 0 0 0
100 100 100 100 100 100 100 100 100 99 100 100 100 100 100 100 37 5 5 3 46 63 12 5 4 8 70 91 92 100 100 100 100 100 26 5 5 4 3 4 4 2 5 5 4 3 5
100 100 100 100 100 100 100 100 66 36 15 18 54 75 51 28 23 6 5 5 5 5 5 5 5 5 5 5 20 50 39 43 58 92 93 83 41 6 13 9 5 5 4 5 0 0 0
100 100 100 100 100 100 52 42 7 6 24 5 5 5 3 2 4 0 0 0 2 5 5 5 0 0 0 1 5 3 5 5 5 29 90 100 100 100 94 100 100 100 30 5 0 0 0
100 100 99 29 92 24 7 5 27 15 4 0 0 0 0 0 0 0 0 0 0 0 0 0 0 0 0 0 0 0 0 1 0 1 4 19 95 100 94 67 42 9 15 5 5 0 0
100 99 21 6 5 4 4 5 0 0 0 1 2 0 0 0 0 0 0 0 0 0 0 0 0 0 0 0 0 0 0 0 0 0 0 0 0 0 1 0 0 3 4 5 1 4 0
5 6 20 5 3 4 5 5 5 5 4 1 1 1 0 0 0 0 0 0 0 0 0 0 0 0 0 0 0 0 0 0 0 0 2 0 0 0 0 4 1 1 5 3 5 5 4
1 5 2 0 0 0 0 0 0 2 0 0 0 0 0 0 0 2 4 3 0 0 0 0 5 5 5 0 0 0 0 0 2 0 5 54 2 0 0 4 5 5 0 2 5 5 5
77 98 6 5 4 5 2 20 5 3 2 0 0 0 0 1 1 2 0 0 0 21 4 0 1 5 11 46 19 39 9 4 5 9 3 21 5 41 5 4 5 5 5 5 5 5 15
56 5 29 5 5 5 5 98 85 20 5 0 2 3 0 4 14 9 4 5 8 44 17 5 54 79 2 1 1 5 62 100 100 84 84 92 97 100 100 51 42 10 5 4 3 5 66
5 5 5 5 5 20 6 100 12 75 36 0 5 5 1 72 85 56 5 59 34 6 63 5 5 1 0 3 2 5 48 96 100 100 80 100 100 100 100 100 100 100 92 50 0 5 15
26 78 93 10 46 100 90 27 100 90 21 4 5 22 100 100 95 98 100 26 7 5 5 5 0 0 0 0 0 3 32 100 100 100 100 100 100 100 100 100 100 100 100 100 23 5 2
5 5 25 11 8 25 27 58 24 5 65 99 100 100 100 100 100 100 99 71 8 19 60 4 0 0 0 0 0 2 3 24 98 100 100 100 100 100 100 100 100 100 100 100 100 4 0
5 12 82 6 4 4 5 11 100 100 100 100 100 100 100 100 100 100 78 18 14 7 5 0 0 0 0 0 0 22 7 76 16 100 100 100 100 100 100 100 100 100 100 100 100 5 5
7 13 5 6 5 5 21 54 91 100 100 100 100 100 100 100 88 6 33 18 47 74 0 0 0 0 0 0 0 0 5 3 19 100 100 100 100 100 100 100 100 100 100 100 100 100 84
5 5 5 5 5 47 99 100 100 100 100 100 100 100 100 32 5 29 62 55 3 0 1 0 0 0 0 0 0 0 0 0 3 79 100 100 100 100 100 100 100 100 100 100 100 100 90
100 96 83 92 100 96 100 100 100 100 100 100 100 86 43 20 16 61 5 0 2 5 1 7 3 1 5 1 0 0 0 4 4 98 100 100 100 100 100 100 100 100 100 100 100 100 100
96 99 62 9 90 100 100 100 100 100 100 99 100 100 99 5 7 5 1 0 0 3 5 6 12 69 52 27 5 4 5 56 99 100 100 100 81 100 100 100 100 100 100 100 100 100 100
94 95 83 100 100 100 100 100 100 100 100 100 100 100 100 100 14 0 0 0 4 5 5 4 7 6 78 15 26 32 35 57 83 100 100 100 99 100 100 100 100 100 100 100 100 100 99
36 100 100 100 100 100 99 100 100 100 100 100 100 100 87 7 0 0 0 1 5 5 0 18 77 90 5 0 0 1 5 86 98 100 100 100 100 100 6 100 100 66 100 100 100 100 99
100 64 98 13 84 100 100 100 100 100 100 100 100 69 77 5 4 1 1 3 4 7 37 4 0 1 0 2 2 0 4 5 50 99 100 83 100 100 26 72 53 97 100 100 100 100 100
100 38 5 5 52 5 48 61 98 100 98 32 5 19 31 71 5 6 68 99 80 25 20 88 90 93 5 0 0 0 0 5 5 5 17 100 100 97 79 34 14 91 100 100 100 100 100
96 26 5 5 5 24 6 69 100 87 58 6 5 15 62 94 74 92 53 5 34 9 51 5 90 61 6 4 0 0 1 5 1 5 6 20 18 30 99 100 100 100 100 100 100 100 100
5 5 5 7 5 6 68 69 7 5 5 36 8 47 82 98 25 78 56 18 27 100 75 88 87 28 96 15 65 7 20 5 0 1 15 91 100 68 74 73 98 98 98 100 100 100 100
29 5 5 5 6 13 44 52 67 5 5 34 5 6 68 100 47 5 1 5 45 5 56 100 73 93 100 93 100 80 100 100 98 100 100 100 94 100 98 99 100 48 97 100 100 100 100
12 12 45 96 75 17 5 5 5 5 5 11 6 5 69 93 3 0 3 77 5 6 87 100 100 100 100 100 100 100 84 100 100 99 100 93 100 100 100 100 100 99 100 100 100 100 92